When you browse on this site, cookies collect data to enhance your experience and personalize the content and advertising you see.
Visit our Privacy Policy to learn more. By continuing to use the site, you agree to this use of cookies and data.
  • en Suisse
  • Liste des pays
  • À 7 jours
  • Température de l'eau
  • Carte satellitaire
  • Carte météo
  • Widgets météo
  • user-avatar
    Se connecter

    Météo par heure à Platonove

    Ce jour, 17 Février, Dimanche

    Heure Température Précipitation Vent Pression Humidité
    00:00 +2°C° 0 mm 2 m/s 755 mmHg 91%
    01:00 +1°C° 0 mm 2 m/s 755 mmHg 91%
    02:00 +1°C° 0 mm 2 m/s 754 mmHg 91%
    03:00 +1°C° 0 mm 2 m/s 754 mmHg 92%
    04:00 +1°C° 0 mm 2 m/s 754 mmHg 92%
    05:00 +1°C° 0 mm 2 m/s 753 mmHg 92%
    06:00 0°C° 0 mm 3 m/s 753 mmHg 92%
    07:00 0°C° 0 mm 3 m/s 753 mmHg 91%
    08:00 0°C° 0 mm 3 m/s 753 mmHg 91%
    09:00 +1°C° 0 mm 4 m/s 753 mmHg 84%
    10:00 +3°C° 0 mm 5 m/s 753 mmHg 76%
    11:00 +6°C° 0 mm 5 m/s 753 mmHg 69%
    12:00 +7°C° 0 mm 6 m/s 753 mmHg 64%
    13:00 +8°C° 0 mm 6 m/s 752 mmHg 59%
    14:00 +9°C° 0 mm 6 m/s 752 mmHg 54%
    15:00 +9°C° 0 mm 6 m/s 751 mmHg 56%
    16:00 +8°C° 0 mm 5 m/s 751 mmHg 58%
    17:00 +7°C° 0 mm 5 m/s 751 mmHg 60%
    18:00 +7°C° 0 mm 5 m/s 751 mmHg 62%
    19:00 +6°C° 0 mm 5 m/s 751 mmHg 65%
    20:00 +5°C° 0 mm 5 m/s 751 mmHg 67%
    21:00 +4°C° 0 mm 4 m/s 751 mmHg 70%
    22:00 +4°C° 0 mm 4 m/s 751 mmHg 74%
    23:00 +3°C° 0 mm 4 m/s 751 mmHg 77%

    Demain, 18 Février, Lundi

    Heure Température Précipitation Vent Pression Humidité
    00:00 +3°C° 0 mm 4 m/s 752 mmHg 79%
    01:00 +3°C° 0 mm 4 m/s 752 mmHg 82%
    02:00 +2°C° 0 mm 3 m/s 752 mmHg 84%
    03:00 +2°C° 0 mm 3 m/s 752 mmHg 85%
    04:00 +2°C° 0 mm 3 m/s 752 mmHg 86%
    05:00 +2°C° 0 mm 3 m/s 752 mmHg 87%
    06:00 +2°C° 0 mm 3 m/s 752 mmHg 86%
    07:00 +2°C° 0 mm 3 m/s 753 mmHg 86%
    08:00 +3°C° 0 mm 3 m/s 753 mmHg 85%
    09:00 +3°C° 0 mm 4 m/s 753 mmHg 79%
    10:00 +4°C° 0 mm 4 m/s 753 mmHg 73%
    11:00 +5°C° 0 mm 5 m/s 754 mmHg 68%
    12:00 +5°C° 0 mm 4 m/s 754 mmHg 67%
    13:00 +5°C° 0 mm 4 m/s 753 mmHg 66%
    14:00 +5°C° 0 mm 4 m/s 753 mmHg 65%
    15:00 +5°C° 0 mm 3 m/s 753 mmHg 67%
    16:00 +5°C° 0 mm 3 m/s 753 mmHg 68%
    17:00 +6°C° 0 mm 2 m/s 753 mmHg 69%
    18:00 +5°C° 0 mm 2 m/s 754 mmHg 73%
    19:00 +4°C° 0 mm 2 m/s 754 mmHg 77%
    20:00 +3°C° 0 mm 2 m/s 754 mmHg 80%
    21:00 +3°C° 0 mm 2 m/s 754 mmHg 81%
    22:00 +2°C° 0 mm 2 m/s 755 mmHg 82%
    23:00 +1°C° 0 mm 2 m/s 755 mmHg 83%

    Après-demain, 19 Février, Mardi

    Heure Température Précipitation Vent Pression Humidité
    00:00 +1°C° 0 mm 2 m/s 755 mmHg 83%
    01:00 -1°C° 0 mm 2 m/s 755 mmHg 83%
    02:00 -1°C° 0 mm 2 m/s 755 mmHg 83%
    03:00 -1°C° 0 mm 2 m/s 755 mmHg 81%
    04:00 -2°C° 0 mm 2 m/s 755 mmHg 80%
    05:00 -2°C° 0 mm 2 m/s 755 mmHg 78%
    06:00 -2°C° 0 mm 2 m/s 755 mmHg 75%
    07:00 -2°C° 0 mm 2 m/s 755 mmHg 72%
    08:00 -2°C° 0 mm 2 m/s 756 mmHg 69%
    09:00 +1°C° 0 mm 2 m/s 756 mmHg 62%
    10:00 +1°C° 0 mm 3 m/s 756 mmHg 55%
    11:00 +2°C° 0 mm 3 m/s 756 mmHg 48%
    12:00 +3°C° 0 mm 3 m/s 756 mmHg 46%
    13:00 +3°C° 0 mm 3 m/s 755 mmHg 44%
    14:00 +4°C° 0 mm 3 m/s 755 mmHg 42%
    15:00 +4°C° 0 mm 3 m/s 755 mmHg 45%
    16:00 +4°C° 0 mm 3 m/s 754 mmHg 47%
    17:00 +3°C° 0 mm 3 m/s 754 mmHg 50%
    18:00 +2°C° 0 mm 3 m/s 754 mmHg 55%
    19:00 0°C° 0 mm 4 m/s 754 mmHg 61%
    20:00 0°C° 0 mm 4 m/s 754 mmHg 66%
    21:00 -1°C° 0 mm 4 m/s 753 mmHg 70%
    22:00 -1°C° 0 mm 4 m/s 753 mmHg 75%
    23:00 -2°C° 0 mm 4 m/s 753 mmHg 79%

    20 Février, Mercredi

    Heure Température Précipitation Vent Pression Humidité
    00:00 -2°C° 0 mm 4 m/s 753 mmHg 81%
    01:00 -2°C° 0 mm 4 m/s 752 mmHg 83%
    02:00 -2°C° 0 mm 4 m/s 752 mmHg 85%
    03:00 -1°C° 0 mm 4 m/s 752 mmHg 86%
    04:00 -1°C° 0 mm 4 m/s 752 mmHg 87%
    05:00 0°C° 0 mm 4 m/s 751 mmHg 87%
    06:00 +1°C° 0 mm 3 m/s 751 mmHg 89%
    07:00 +1°C° 0 mm 3 m/s 751 mmHg 90%
    08:00 +2°C° 0 mm 2 m/s 751 mmHg 91%
    09:00 +3°C° 0 mm 2 m/s 751 mmHg 88%
    10:00 +4°C° 0 mm 2 m/s 751 mmHg 86%
    11:00 +5°C° 0 mm 2 m/s 751 mmHg 83%
    12:00 +6°C° 0 mm 2 m/s 751 mmHg 77%
    13:00 +7°C° 0 mm 2 m/s 751 mmHg 71%
    14:00 +8°C° 0 mm 2 m/s 751 mmHg 65%
    15:00 +8°C° 0 mm 2 m/s 751 mmHg 66%
    16:00 +8°C° 0 mm 2 m/s 751 mmHg 68%
    17:00 +8°C° 0 mm 2 m/s 751 mmHg 69%
    18:00 +7°C° 0 mm 2 m/s 751 mmHg 72%
    19:00 +6°C° 0 mm 2 m/s 752 mmHg 76%
    20:00 +5°C° 0 mm 2 m/s 752 mmHg 79%
    21:00 +5°C° 0 mm 2 m/s 752 mmHg 82%
    22:00 +5°C° 0 mm 2 m/s 752 mmHg 84%
    23:00 +4°C° 0 mm 3 m/s 752 mmHg 87%

    21 Février, Jeudi

    Heure Température Précipitation Vent Pression Humidité
    00:00 +4°C° 0 mm 2 m/s 752 mmHg 86%
    01:00 +3°C° 0 mm 2 m/s 752 mmHg 86%
    02:00 +3°C° 0 mm 2 m/s 752 mmHg 86%
    03:00 +2°C° 0 mm 2 m/s 752 mmHg 86%
    04:00 +1°C° 0 mm 3 m/s 752 mmHg 87%
    05:00 +1°C° 0 mm 3 m/s 752 mmHg 88%
    06:00 +2°C° 0 mm 3 m/s 752 mmHg 86%
    07:00 +1°C° 0 mm 4 m/s 752 mmHg 85%
    08:00 +1°C° 0 mm 4 m/s 752 mmHg 83%
    09:00 +2°C° 0 mm 5 m/s 752 mmHg 77%
    10:00 +5°C° 0 mm 5 m/s 752 mmHg 71%
    11:00 +5°C° 0 mm 6 m/s 752 mmHg 66%
    12:00 +5°C° 0 mm 6 m/s 752 mmHg 65%
    13:00 +7°C° 0 mm 6 m/s 752 mmHg 65%
    14:00 +6°C° 0 mm 7 m/s 751 mmHg 65%
    15:00 +7°C° 0 mm 6 m/s 751 mmHg 65%
    16:00 +7°C° 0 mm 4 m/s 751 mmHg 66%
    17:00 +7°C° 0 mm 3 m/s 751 mmHg 66%
    18:00 +7°C° 0 mm 3 m/s 751 mmHg 70%
    19:00 +5°C° 0 mm 3 m/s 751 mmHg 75%
    20:00 +6°C° 0 mm 2 m/s 751 mmHg 79%
    21:00 +6°C° 0 mm 2 m/s 751 mmHg 79%
    22:00 +5°C° 0 mm 3 m/s 751 mmHg 80%
    23:00 +5°C° 0 mm 3 m/s 751 mmHg 80%

    22 Février, Vendredi

    Heure Température Précipitation Vent Pression Humidité
    00:00 +4°C° 0.1 mm 3 m/s 751 mmHg 81%
    01:00 +4°C° 0.1 mm 3 m/s 751 mmHg 83%
    02:00 +4°C° 0.1 mm 3 m/s 751 mmHg 84%
    03:00 +5°C° 0.1 mm 2 m/s 750 mmHg 85%
    04:00 +5°C° 0.1 mm 2 m/s 750 mmHg 87%
    05:00 +5°C° 0.1 mm 2 m/s 749 mmHg 88%
    06:00 +5°C° 0.3 mm 2 m/s 749 mmHg 89%
    07:00 +6°C° 0.3 mm 1 m/s 749 mmHg 90%
    08:00 +6°C° 0.3 mm 1 m/s 749 mmHg 90%
    09:00 +6°C° 0.6 mm 1 m/s 748 mmHg 89%
    10:00 +6°C° 0.6 mm 1 m/s 748 mmHg 88%
    11:00 +6°C° 0.6 mm 1 m/s 748 mmHg 87%
    12:00 +5°C° 0.5 mm 2 m/s 748 mmHg 86%
    13:00 +5°C° 0.5 mm 2 m/s 747 mmHg 86%
    14:00 +6°C° 0.5 mm 2 m/s 747 mmHg 85%
    15:00 +4°C° 0.4 mm 4 m/s 747 mmHg 85%
    16:00 +2°C° 0.4 mm 6 m/s 747 mmHg 84%
    17:00 0°C° 0.4 mm 7 m/s 747 mmHg 84%
    18:00 -2°C° 0.1 mm 8 m/s 748 mmHg 82%
    19:00 -4°C° 0.1 mm 9 m/s 749 mmHg 80%
    20:00 -5°C° 0.1 mm 9 m/s 750 mmHg 78%
    21:00 -5°C° 0.1 mm 9 m/s 751 mmHg 77%
    22:00 -6°C° 0.1 mm 9 m/s 752 mmHg 77%
    23:00 -8°C° 0.1 mm 9 m/s 753 mmHg 76%
    Voir plus